Location: Ladrillo (historical)
(32.8195°N, 117.2231°W)
Time: 02:14:02
(UTC+00:00)

Cosmos 407 Rocket - Visible Passes

Search period start: 01 March 2021 00:00
Search period end: 11 March 2021 00:00
Orbit: 744 x 786 km, 74.0° (Epoch: 28 February)

Date Brightness Start Highest point End Pass type
(mag) Time Alt. Az. Time Alt. Az. Time Alt. Az.
01 Mar 6.6 12:25:38 10° ESE 12:28:04 13° E 12:30:29 10° ENE visible
02 Mar 3.6 13:26:18 10° SSW 13:31:32 81° ESE 13:36:42 10° NNE visible
03 Mar 4.8 12:48:46 10° S 12:53:39 42° ESE 12:58:31 10° NNE visible
04 Mar 5.8 12:11:53 10° SSE 12:15:53 23° E 12:19:51 10° NE visible
05 Mar 6.5 11:36:30 10° ESE 11:38:12 12° E 11:39:54 10° ENE visible
05 Mar 3.5 13:14:25 10° SSW 13:19:33 61° WNW 13:24:40 10° N visible
06 Mar 3.7 12:36:26 10° S 12:41:37 72° ESE 12:46:45 10° NNE visible
07 Mar 4.8 11:59:00 10° SSE 12:03:46 37° E 12:08:29 10° NE visible
07 Mar 4.7 13:41:59 10° WSW 13:45:48 20° WNW 13:49:37 10° NNW visible
08 Mar 5.8 11:23:21 14° SE 11:26:00 20° E 11:29:41 10° NE visible
08 Mar 4.0 13:03:39 14° SW 13:07:39 36° WNW 13:12:25 10° N visible
09 Mar 3.3 12:27:40 38° SW 12:29:37 69° WNW 12:34:46 10° N visible
10 Mar 3.7 11:51:25 62° ESE 11:51:42 63° ESE 11:56:47 10° NNE visible
10 Mar 5.3 13:31:55 10° W 13:34:05 12° WNW 13:36:16 10° NW visible
